Details From VVNB - Hanoi Noibai Intl
To VVCI - HAIPHONG CATBI
Flight Number -
Tags generated
Created
Modified
Stats Distance 57 nm / 106 km
Max Altitude 600 ft / 183 m
Waypoints 3
Social Downloads 0
Likes 0
Share VATSIM

Download

Looking for another format? Having issues loading an existing format? Contact us
Advertisement - Login to hide

Notes

Basic altitude profile: - Ascent Rate: 2500ft/min - Ascent Speed: 250kts - Cruise Altitude: 35000ft - Cruise Speed: 420kts - Descent Rate: 1500ft/min - Descent Speed: 250kts Options: - Use NATs: yes - Use PACOTS: yes - Use low airways: yes - Use high airways: yes

Route

VVNB NOB VVCI

ID Type Via Altitude Latitude Longitude Leg Dist Tot Dist Heading (true) Name
O VVNB APT - 0 ft / 0 m 21.21974˚ 105.80377˚ - 0 nm - Hanoi Noibai Intl
NOB VOR - 600 ft / 183 m 21.21302˚ 105.83494˚ 1 nm 1 nm 103° / 103° NOIBAI VOR-DME
O VVCI APT - 0 ft / 0 m 20.81939˚ 106.72499˚ 55 nm 57 nm 115° / 116° HAIPHONG CATBI

Altitude Profile

Advertisement - Login to hide

VVNB

Details ICAO VVNB (HAN)
Name Hanoi Noibai Intl
Region Vietnam
Timezone Asia/Ho_Chi_Minh (UTC+7.0)
Stats Elevation 39 ft / 12 m (AMSL)
Location 21.219739° 105.803774°
Runways 2
Magnetic Variation 1.490° W

METAR

VVNB 241000Z 12014KT 9999 FEW025 33/25 Q1003 NOSIG

Decode

TAF

TAF VVNB 240500Z 2406/2506 15010KT 9999 FEW023

Decode

Departure Runways

ID Width Length Bearing (true) Bearing (mag) Surface Threshold Offset Overrun Length
11L 148 ft / 45 m 12,454 ft / 3,796 m 107.24° 108.73° Concrete 0 ft / 0 m 0 ft / 0 m
11R 148 ft / 45 m 12,456 ft / 3,797 m 107.22° 108.71° Concrete 0 ft / 0 m 325 ft / 99 m
29L 148 ft / 45 m 12,456 ft / 3,797 m 287.23° 288.72° Concrete 0 ft / 0 m 325 ft / 99 m
29R 148 ft / 45 m 12,454 ft / 3,796 m 287.25° 288.74° Concrete 0 ft / 0 m 868 ft / 265 m

VVCI

Details ICAO VVCI (HPH)
Name HAIPHONG CATBI
Region Vietnam
Timezone Asia/Ho_Chi_Minh (UTC+7.0)
Stats Elevation 6 ft / 2 m (AMSL)
Location 20.819386° 106.724990°
Runways 1
Magnetic Variation 1.566° W

METAR

VVCI 241000Z 17012KT 9999 FEW023 SCT028 31/25 Q1005 NOSIG

Decode

TAF

TAF VVCI 240500Z 2406/2506 18010KT 9999 SCT023= TAF VVCR 240500Z 2406/2506 08010KT 9999 FEW015 TEMPO 2408/2412 TS SCT015 FEW017CB BECMG 2413/2414 35005KT

Decode

Destination Runways

ID Width Length Bearing (true) Bearing (mag) Surface Threshold Offset Overrun Length
07 164 ft / 50 m 7,879 ft / 2,402 m 72.18° 73.75° Asphalt 0 ft / 0 m 0 ft / 0 m
25 164 ft / 50 m 7,879 ft / 2,402 m 252.19° 253.76° Asphalt 0 ft / 0 m 0 ft / 0 m

Popular Alternatives